[[{"header":{"parameterUnit":"m.s-1","parameterCategory":1,"la1":30.2991,"la2":30.254,"lo1":-89.0895,"lo2":-89.0444,"dy":0.0017,"dx":0.0017,"nx":28,"ny":28,"refTime":"2025-12-17T09:00:00:Z","depth":0,"parameterNumber":2,"parameterNumberName":"U-component_of_WINDS"},"data":[0,0,0,0,0,0,0,0,0,0,0,0,0,0,0,0,0,0,0,0,0,0,0,0,0,0,0,0,0,0,0,0,0,0,0,0,0,0,0,0,0,0,0,0,0,0,0,0,0,0,0,0,0,0,0,0,0,0,-2.4497,-2.4497,0,-2.4511,-2.4511,-2.4512,-2.4467,-2.4465,-2.4464,-2.4462,-2.4476,-2.4478,-2.448,0,0,0,0,0,0,0,0,0,0,0,0,0,-2.4432,-2.4433,-2.4497,-2.4497,-2.4497,-2.4511,-2.4511,-2.4512,-2.4467,-2.4465,-2.4463,-2.4462,-2.4476,-2.4478,-2.448,0,0,0,0,0,0,0,0,0,0,0,0,0,-2.4454,-2.4434,-2.4497,-2.4477,-2.4475,-2.4511,-2.4511,-2.4512,-2.4467,-2.4465,-2.4463,-2.4461,-2.4475,-2.4478,-2.448,-2.4536,0,0,-2.4488,-2.4489,0,0,0,0,0,0,0,0,-2.4453,-2.4457,-2.448,-2.4478,-2.4476,-2.4485,-2.4493,-2.452,-2.4468,-2.447,-2.4462,-2.446,-2.4481,-2.4483,-2.449,-2.4537,-2.4537,-2.4488,-2.4489,-2.449,-2.4491,0,0,0,0,0,0,0,-2.4452,-2.4456,-2.4503,-2.448,-2.4478,-2.4467,-2.4468,-2.4498,-2.4487,-2.447,-2.4466,-2.4469,-2.448,-2.4488,-2.449,-2.4538,-2.4488,-2.449,-2.4491,-2.4492,-2.4633,-2.4635,0,0,0,0,0,0,-2.4453,-2.4455,-2.4502,-2.4503,-2.446,-2.447,-2.4471,-2.4484,-2.4486,-2.4485,-2.4471,-2.4467,-2.4484,-2.4487,-2.449,-2.4556,-2.449,-2.4493,-2.4494,-2.463,-2.4633,-2.4635,0,0,0,0,0,0,-2.4451,-2.4457,-2.4502,-2.4478,-2.4483,-2.4473,-2.4489,-2.4486,-2.4493,-2.4487,-2.4485,-2.4481,-2.4483,-2.4487,-2.4525,-2.4556,-2.4494,-2.4496,-2.4628,-2.4631,-2.4634,-2.4688,0,0,0,0,0,0,-2.445,-2.4457,-2.4478,-2.4479,-2.4484,-2.4536,-2.449,-2.4487,-2.4498,-2.4493,-2.4496,-2.4494,-2.4482,-2.4522,-2.4528,-2.4558,-2.4498,-2.4625,-2.4629,-2.4633,-2.4684,-2.4693,-2.4701,0,0,0,0,0,-2.4448,-2.4492,-2.4479,-2.4485,-2.451,-2.4538,-2.4541,-2.4526,-2.4501,-2.4522,-2.4518,-2.4494,-2.4552,-2.4526,-2.4533,-2.4564,-2.4623,-2.4628,-2.4633,-2.468,-2.4691,-2.4701,0,0,0,0,0,0,-2.4495,-2.4492,-2.4477,-2.4524,-2.4532,-2.4531,-2.4556,-2.4538,-2.4553,-2.4548,-2.4528,-2.4529,-2.4571,-2.4572,-2.4543,-2.4619,-2.4583,-2.459,-2.4617,-2.4628,-2.4636,-2.4635,-2.45,0,0,0,0,0,-2.4511,-2.4533,-2.453,-2.4571,-2.4576,-2.4566,-2.4577,-2.4565,-2.4572,-2.4575,-2.4574,-2.4582,-2.4602,-2.4615,-2.4633,-2.4685,-2.4685,-2.471,-2.4718,-2.4726,-2.4731,-2.4759,-2.477,-2.4652,-2.4652,-2.4652,0,0,-2.4543,-2.4545,-2.456,-2.4581,-2.4585,-2.461,-2.4569,-2.4596,-2.4614,-2.4579,-2.4615,-2.4615,-2.4623,-2.4668,-2.4688,-2.467,-2.4764,-2.4732,-2.4738,-2.4739,-2.4765,-2.4776,-2.4786,-2.4655,-2.4655,-2.4654,0,0,-2.4615,-2.4619,-2.4654,-2.466,-2.4667,-2.4661,-2.4669,-2.4671,-2.467,-2.4706,-2.4681,-2.4702,-2.4737,-2.4744,-2.4751,-2.4828,-2.4807,-2.4835,-2.488,-2.4907,-2.4916,-2.4925,-2.4952,-2.4962,-2.4841,-2.4841,-2.4841,0,-2.4654,-2.469,-2.4674,-2.4703,-2.4713,-2.4684,-2.472,-2.4726,-2.4739,-2.4747,-2.4727,-2.477,-2.4773,-2.482,-2.4839,-2.4847,-2.4856,-2.4833,-2.4917,-2.4924,-2.4932,-2.4957,-2.4968,-2.4844,-2.4844,-2.4843,-2.4843,0,-2.4738,-2.4763,-2.4791,-2.4805,-2.4818,-2.485,-2.4839,-2.4855,-2.4843,-2.4838,-2.4876,-2.4879,-2.4897,-2.4908,-2.4896,-2.4954,-2.4942,-2.492,-2.4883,-2.4946,-2.497,-2.498,-2.4849,-2.4848,-2.4847,-2.4846,0,0,-2.4837,-2.4844,-2.4854,-2.486,-2.4868,-2.4887,-2.4919,-2.4937,-2.4951,-2.4962,-2.4987,-2.5019,-2.4998,-2.5008,-2.4996,-2.502,-2.5081,-2.4995,-2.4995,-2.501,-2.5145,-2.5161,-2.5172,-2.5068,-2.507,-2.5071,-2.5144,0,-2.4907,-2.4961,-2.4948,-2.5001,-2.5025,-2.4999,-2.5026,-2.5034,-2.5032,-2.5052,-2.5049,-2.5071,-2.5043,-2.5048,-2.5071,-2.5069,-2.5108,-2.5064,-2.5091,-2.5093,-2.5089,-2.5185,-2.5201,-2.527,-2.5153,-2.5155,-2.5156,0,-2.4995,-2.501,-2.5066,-2.5071,-2.508,-2.5105,-2.5121,-2.5141,-2.515,-2.5146,-2.5158,-2.5142,-2.5173,-2.5138,-2.5182,-2.5152,-2.5163,-2.5164,-2.5166,-2.5167,-2.5127,-2.5187,-2.5291,-2.5301,-2.5171,-2.5169,-2.5168,0,-2.5061,-2.5095,-2.5133,-2.5139,-2.5146,-2.5164,-2.5168,-2.5175,-2.5188,-2.5203,-2.521,-2.5229,-2.5239,-2.5254,-2.5244,-2.5219,-2.5289,-2.5253,-2.5287,-2.5287,-2.5301,-2.53,-2.5407,-2.5311,-2.5311,-2.531,-2.531,0,-2.5139,-2.5174,-2.5163,-2.5186,-2.5224,-2.5211,-2.5249,-2.525,-2.5257,-2.528,-2.526,-2.5282,-2.5268,-2.5289,-2.5282,-2.5319,-2.5324,-2.5322,-2.5319,-2.5323,-2.5323,-2.5328,-2.5323,-2.5313,-2.5312,-2.5312,-2.5311,0,-2.5218,-2.5212,-2.5252,-2.5256,-2.5258,-2.5286,-2.5289,-2.5311,-2.5308,-2.5338,-2.5344,-2.5339,-2.5363,-2.5355,-2.5381,-2.5376,-2.5423,-2.5415,-2.542,-2.5417,-2.5452,-2.5448,-2.5565,-2.5579,-2.5475,-2.5476,-2.5477,0,-2.5268,-2.5294,-2.5302,-2.5316,-2.5321,-2.5344,-2.5357,-2.5346,-2.536,-2.5373,-2.5394,-2.5416,-2.5433,-2.5473,-2.5472,-2.5492,-2.5483,-2.5523,-2.5486,-2.5489,-2.5483,-2.5481,-2.5483,-2.553,-2.5531,-2.5532,-2.5533,0,-2.5357,-2.5353,-2.5372,-2.5391,-2.5407,-2.5421,-2.5434,-2.5447,-2.5436,-2.5453,-2.5478,-2.5491,-2.5519,-2.5541,-2.556,-2.5564,-2.5547,-2.5545,-2.5554,-2.5557,-2.5558,-2.5557,-2.5439,-2.5542,-2.5541,-2.554,-2.554,-2.5539,-2.5422,-2.5444,-2.5453,-2.5476,-2.5484,-2.5497,-2.5517,-2.5518,-2.5538,-2.5559,-2.5552,-2.558,-2.559,-2.5613,-2.562,-2.5642,-2.5627,-2.564,-2.5643,-2.5646,-2.565,-2.5556,-2.5646,-2.5645,-2.5645,-2.5645,-2.5645,0,-2.5508,-2.5513,-2.5534,-2.5553,-2.5571,-2.5555,-2.5568,-2.5584,-2.5609,-2.562,-2.5638,-2.5667,-2.569,-2.5691,-2.5712,-2.573,-2.5723,-2.5736,-2.5733,-2.5735,-2.5662,-2.5652,-2.5741,-2.5741,-2.5741,-2.5741,-2.5741,-2.5741,-2.5555,-2.5592,-2.559,-2.5632,-2.5636,-2.5664,-2.5673,-2.5685,-2.5694,-2.5727,-2.5746,-2.5747,-2.5754,-2.5776,-2.5796,-2.5796,-2.5804,-2.582,-2.5817,-2.5749,-2.574,-2.573,-2.5721,-2.5822,-2.5823,-2.5887,-2.5888,-2.5888]},{"header":{"parameterUnit":"m.s-1","parameterCategory":1,"la1":30.2991,"la2":30.254,"lo1":-89.0895,"lo2":-89.0444,"dy":0.0017,"dx":0.0017,"nx":28,"ny":28,"refTime":"2025-12-17T09:00:00:Z","depth":0,"parameterNumber":3,"parameterNumberName":"V-component_of_WINDS"},"data":[0,0,0,0,0,0,0,0,0,0,0,0,0,0,0,0,0,0,0,0,0,0,0,0,0,0,0,0,0,0,0,0,0,0,0,0,0,0,0,0,0,0,0,0,0,0,0,0,0,0,0,0,0,0,0,0,0,0,1.9683,1.9683,0,1.9703,1.9703,1.9703,1.9707,1.9707,1.9707,1.9707,1.9726,1.9726,1.9727,0,0,0,0,0,0,0,0,0,0,0,0,0,1.9646,1.9647,1.9683,1.9683,1.9683,1.9703,1.9703,1.9704,1.9707,1.9707,1.9707,1.9707,1.9725,1.9726,1.9727,0,0,0,0,0,0,0,0,0,0,0,0,0,1.9664,1.9647,1.9683,1.9688,1.9688,1.9703,1.9703,1.9704,1.9707,1.9707,1.9707,1.9707,1.9725,1.9726,1.9727,1.9738,0,0,1.973,1.973,0,0,0,0,0,0,0,0,1.9663,1.9665,1.9687,1.9687,1.9688,1.9703,1.9697,1.9715,1.9708,1.97,1.9707,1.9707,1.9718,1.972,1.9724,1.9738,1.9739,1.973,1.9731,1.9731,1.9731,0,0,0,0,0,0,0,1.9662,1.9664,1.9691,1.9687,1.9688,1.9689,1.9691,1.9701,1.971,1.9701,1.9701,1.9704,1.9718,1.9723,1.9724,1.974,1.973,1.9731,1.9731,1.9732,1.9766,1.9766,0,0,0,0,0,0,1.966,1.9663,1.969,1.9691,1.9675,1.9689,1.9692,1.9698,1.971,1.9712,1.9704,1.9704,1.9721,1.9723,1.9725,1.974,1.9731,1.9732,1.9732,1.9766,1.9766,1.9766,0,0,0,0,0,0,1.9659,1.9662,1.9689,1.9677,1.9681,1.969,1.9697,1.9699,1.9703,1.9712,1.9714,1.9707,1.9721,1.9724,1.9735,1.974,1.9732,1.9733,1.9765,1.9766,1.9766,1.9768,0,0,0,0,0,0,1.9658,1.9662,1.9666,1.9678,1.9682,1.9699,1.9697,1.9699,1.9705,1.9705,1.9715,1.9717,1.9721,1.9734,1.9736,1.9741,1.9734,1.9765,1.9766,1.9766,1.9767,1.9768,1.9769,0,0,0,0,0,1.9657,1.9665,1.9666,1.9669,1.9687,1.9699,1.9702,1.9707,1.9705,1.971,1.9716,1.9717,1.9739,1.9735,1.9737,1.9743,1.9765,1.9765,1.9766,1.9767,1.9768,1.9769,0,0,0,0,0,0,1.9652,1.9666,1.9668,1.968,1.9689,1.97,1.9706,1.9708,1.9716,1.9716,1.9722,1.9724,1.9736,1.974,1.9735,1.9755,1.9752,1.9753,1.9752,1.9753,1.9754,1.9752,1.9735,0,0,0,0,0,1.9653,1.9662,1.9674,1.9683,1.9687,1.9696,1.9701,1.9705,1.9714,1.9717,1.9724,1.9732,1.9742,1.9747,1.9756,1.9768,1.9771,1.9774,1.9774,1.9775,1.9776,1.9785,1.9786,1.9769,1.9769,1.9769,0,0,1.9653,1.9662,1.9667,1.9682,1.969,1.9699,1.9699,1.9708,1.9716,1.9718,1.9731,1.9736,1.9745,1.9758,1.9764,1.9762,1.9782,1.9776,1.9777,1.9777,1.9786,1.9787,1.9789,1.9769,1.9769,1.9769,0,0,1.966,1.9667,1.9677,1.9685,1.9696,1.9702,1.9705,1.9716,1.972,1.9733,1.9736,1.9744,1.9759,1.9767,1.9772,1.9784,1.9786,1.9787,1.9792,1.98,1.9801,1.9803,1.9808,1.981,1.9788,1.9788,1.9788,0,1.9659,1.9674,1.9681,1.9692,1.9699,1.9703,1.9714,1.972,1.9734,1.9738,1.9737,1.9758,1.9764,1.9779,1.9782,1.9786,1.979,1.9786,1.9801,1.9802,1.9803,1.9809,1.981,1.9788,1.9788,1.9788,1.9788,0,1.9674,1.9684,1.9691,1.9706,1.9713,1.9723,1.9732,1.9739,1.9742,1.9748,1.9762,1.977,1.9781,1.9785,1.9788,1.9801,1.98,1.9799,1.9796,1.9805,1.981,1.9812,1.9788,1.9788,1.9788,1.9788,0,0,1.9677,1.9697,1.9699,1.9707,1.9721,1.9729,1.974,1.9752,1.9759,1.9768,1.9778,1.9792,1.9792,1.9798,1.9802,1.9809,1.982,1.9808,1.9808,1.9811,1.9837,1.9838,1.984,1.9821,1.9822,1.9822,1.9837,0,1.9686,1.9706,1.9714,1.9731,1.9741,1.9747,1.9757,1.9766,1.9773,1.9783,1.9789,1.98,1.9798,1.9803,1.981,1.9817,1.9826,1.9816,1.9831,1.9831,1.9829,1.9843,1.9843,1.9857,1.9839,1.9839,1.9839,0,1.9699,1.9711,1.9729,1.9744,1.9748,1.9757,1.977,1.978,1.9791,1.9795,1.9804,1.9808,1.982,1.9816,1.9833,1.9827,1.9833,1.9838,1.9838,1.984,1.9836,1.9846,1.9861,1.9863,1.9842,1.9842,1.9842,0,1.9701,1.9721,1.9735,1.9741,1.9758,1.9765,1.9772,1.9784,1.9791,1.9803,1.9808,1.982,1.9826,1.9836,1.9843,1.9839,1.986,1.9856,1.9864,1.9864,1.9868,1.9868,1.9886,1.9871,1.9871,1.9871,1.9871,0,1.971,1.9722,1.9736,1.9745,1.9758,1.9767,1.978,1.9787,1.9798,1.9809,1.9813,1.9823,1.9832,1.9843,1.9848,1.9862,1.9865,1.9869,1.987,1.9869,1.9869,1.9874,1.9873,1.9872,1.9872,1.9872,1.9871,0,1.9714,1.9725,1.9741,1.9757,1.9761,1.977,1.9784,1.9793,1.98,1.9814,1.9817,1.9829,1.9842,1.985,1.9866,1.987,1.9886,1.9887,1.9883,1.9884,1.9892,1.9891,1.9913,1.9917,1.9899,1.99,1.99,0,1.972,1.9729,1.9747,1.9755,1.9763,1.9776,1.9784,1.9794,1.9803,1.9818,1.9825,1.9839,1.9851,1.9872,1.9881,1.9894,1.9896,1.9903,1.9898,1.9897,1.9897,1.9897,1.9899,1.9904,1.9904,1.9904,1.9904,0,1.973,1.9735,1.9748,1.9763,1.9774,1.9786,1.9797,1.9804,1.9815,1.9825,1.9839,1.9849,1.9867,1.9881,1.9895,1.9902,1.9906,1.9906,1.9909,1.9907,1.9905,1.9908,1.9886,1.9905,1.9905,1.9905,1.9905,1.9905,1.9735,1.9745,1.9759,1.9774,1.9785,1.9796,1.9806,1.9816,1.9829,1.9845,1.985,1.9865,1.9878,1.9898,1.9906,1.9918,1.9917,1.9921,1.9922,1.9923,1.9924,1.9903,1.992,1.992,1.992,1.992,1.992,0,1.9746,1.9757,1.977,1.9788,1.98,1.9803,1.9817,1.9827,1.9841,1.9853,1.9865,1.9883,1.9897,1.9909,1.9923,1.9931,1.9933,1.9935,1.9935,1.9937,1.9923,1.992,1.9933,1.9933,1.9933,1.9933,1.9933,1.9933,1.9753,1.977,1.9777,1.9799,1.981,1.9826,1.9834,1.9845,1.9855,1.9875,1.9888,1.9896,1.9908,1.9925,1.9938,1.9941,1.9947,1.9948,1.9952,1.9939,1.9937,1.9936,1.9933,1.9949,1.9949,1.9965,1.9965,1.9965]}]]